Weather History for Ontario, OR

Change the Weather History Date:

Saturday, July 27, 2013

  Actual Average Record
Temperature  
Mean Temperature 87 °F 78 °F  
Max Temperature 97 °F 96 °F 107 °F (1996)
Min Temperature 76 °F 59 °F 47 °F (1948)
Degree Days  
Heating Degree Days 0 0  
Month to date heating degree days 0 0  
Since 1 June heating degree days 39 52  
Since 1 July heating degree days 0 0  
Cooling Degree Days 22 12  
Month to date cooling degree days 458 298  
Year to date cooling degree days 709 473  
Since 1 June cooling degree days 662 437  
Growing Degree Days 37 (Base 50)    
Moisture  
Dew Point 31 °F    
Average Humidity 17    
Maximum Humidity 26    
Minimum Humidity 8    
Precipitation  
Precipitation 0.00 in 0.01 in 0.31 in (2003)
Month to date precipitation 0.00 0.28  
Year to date precipitation 2.61 6.04  
Sea Level Pressure  
Sea Level Pressure 29.85 in    
Wind  
Wind Speed 11 mph (NW)    
Max Wind Speed 22 mph    
Max Gust Speed 28 mph    
Visibility 10 miles    
Events      
T = Trace of Precipitation, MM = Missing Value Source: NWS Daily Summary

Daily Weather History Graph

Daily Weather History Graph

Search for Another Location

Airport:

Trip Planner

Search our weather history database for the weather conditions in past years. The results will help you decide how hot, cold, wet, or windy it might be!

Date:

Astronomy

Jul. 27, 2013 Rise Set
Actual Time 6:31 AM MDT 9:17 PM MDT
Civil Twilight 5:57 AM MDT 9:50 PM MDT
Nautical Twilight 5:15 AM MDT 10:32 PM MDT
Astronomical Twilight 4:25 AM MDT 11:21 PM MDT
Moon 11:51 PM MDT (7/27) 12:31 PM MDT (7/27)
Length of Visible Light 15h 53m
Length of Day
14h 46m
Waning Gibbous, 70% of the Moon is Illuminated
Jul 27
Waning Gibbous
Jul 29
Last Quarter
Aug 6
New
Aug 14
First Quarter
Aug 20
Full

Hourly Weather History & Observations

Time (MDT) Temp. Dew Point Humidity Pressure Visibility Wind Dir Wind Speed Gust Speed Precip Events Conditions
12:53 AM 81.0 °F 43.0 °F 26% 29.91 in 10.0 mi West 6.9 mph - N/A   Clear
1:53 AM 84.9 °F 32.0 °F 15% 29.89 in 10.0 mi NW 11.5 mph - N/A   Clear
2:53 AM 84.0 °F 33.1 °F 16% 29.90 in 10.0 mi WNW 11.5 mph - N/A   Clear
3:53 AM 82.0 °F 28.0 °F 14% 29.89 in 10.0 mi Calm Calm - N/A   Clear
4:53 AM 82.9 °F 26.1 °F 13% 29.91 in 10.0 mi WSW 12.7 mph 21.9 mph N/A   Clear
5:53 AM 80.1 °F 28.9 °F 15% 29.91 in 10.0 mi NW 16.1 mph 23.0 mph N/A   Clear
6:53 AM 78.1 °F 34.0 °F 20% 29.91 in 10.0 mi NW 18.4 mph - N/A   Clear
7:53 AM 77.0 °F 37.9 °F 24% 29.93 in 10.0 mi NW 20.7 mph 27.6 mph N/A   Clear
8:53 AM 82.0 °F 39.0 °F 22% 29.93 in 10.0 mi WNW 11.5 mph - N/A   Clear
9:53 AM 86.0 °F 37.0 °F 18% 29.94 in 10.0 mi WNW 11.5 mph - N/A   Clear
10:53 AM 89.1 °F 30.0 °F 12% 29.92 in 10.0 mi NW 18.4 mph - N/A   Clear
11:53 AM 93.0 °F 26.1 °F 9% 29.91 in 10.0 mi NW 13.8 mph 21.9 mph N/A   Clear
12:53 PM 93.9 °F 24.1 °F 8% 29.89 in 10.0 mi NW 9.2 mph - N/A   Clear
1:53 PM 93.0 °F 28.9 °F 10% 29.87 in 10.0 mi SSW 4.6 mph - N/A   Clear
2:53 PM 93.0 °F 35.1 °F 13% 29.84 in 10.0 mi Variable 3.5 mph - N/A   Clear
3:53 PM 93.9 °F 39.9 °F 15% 29.81 in 10.0 mi SSE 5.8 mph - N/A   Clear
4:53 PM 96.1 °F 33.1 °F 11% 29.77 in 10.0 mi NE 3.5 mph - N/A   Clear
5:53 PM 97.0 °F 32.0 °F 10% 29.75 in 10.0 mi NNE 6.9 mph - N/A   Clear
6:53 PM 96.1 °F 28.9 °F 9% 29.73 in 10.0 mi Variable 5.8 mph - N/A   Clear
7:53 PM 95.0 °F 28.9 °F 10% 29.73 in 10.0 mi North 5.8 mph - N/A   Clear
8:53 PM 89.1 °F 26.1 °F 10% 29.74 in 10.0 mi NNW 13.8 mph - N/A   Clear
9:53 PM 84.0 °F 27.0 °F 13% 29.76 in 10.0 mi NW 15.0 mph - N/A   Clear
10:53 PM 82.0 °F 26.1 °F 13% 29.77 in 10.0 mi NW 17.3 mph - N/A   Clear
11:53 PM 79.0 °F 27.0 °F 15% 29.78 in 10.0 mi NNW 16.1 mph - N/A   Clear